Home > Weather > Chongqing > Past weeks

Flag for China Past Weather in Chongqing, Chongqing Municipality, China — Yesterday and Last 2 Weeks

Now
88 °F

Clear.


Feels Like: 93 °F
Forecast: 84 / 104 °F
Wind: 1 mph from North

Location: Chongqing Airport

Current Time: Jul 26, 2016 at 6:19:53 AM

Latest Report: Jul 26, 2016 at 5:00 AM


Visibility: 10 mi

Pressure: 29.71 "Hg

Humidity: 55%

Dew Point: 70 °F

Location of ChongqingLocation

Past Weather in Chongqing — Graph

°F

Chongqing Temperature Yesterday

Maximum temperature yesterday: 100 °F (at 2:00 PM)
Minimum temperature yesterday: 84 °F (at 5:00 AM)
Average temperature yesterday: 93 °F

High & Low Weather Summary for the Past Weeks

 TemperatureHumidityPressure
High100 °F (Jul 11, 3:00 PM)94% (Jul 19, 3:00 AM)29.77 "Hg (Jul 19, 3:00 AM)
Low72 °F (Jul 14, 7:00 PM)31% (Jul 25, 4:00 PM)29.42 "Hg (Jul 18, 3:00 PM)
Average86 °F65%29.60 "Hg
* Reported Jul 11 5:00 AM — Jul 26 5:00 AM, Chongqing, Weather by CustomWeather, © 2016

Note: Actual official high and low records may vary slightly from our data, if they occured in-between our weather recording intervals... More about our weather records

Advertising

Chongqing Weather History for the Previous 24 Hours

Scroll right to see more
 ConditionsComfort  
Time TempWeatherWind HumidityBarometerVisibility
5:00 AM
Tue, Jul 26
88 °FClear.1 mph55%29.71 "Hg10 mi
4:00 AM90 °FPassing clouds.3 mph52%29.71 "HgN/A
3:00 AM90 °FClear.3 mph52%29.71 "Hg10 mi
2:00 AM90 °FPassing clouds.3 mph55%29.71 "HgN/A
1:00 AM90 °FClear.1 mph55%29.71 "Hg10 mi
12:00 AM90 °FClear.8 mph55%29.71 "Hg10 mi
11:00 PM
Mon, Jul 25
90 °FClear.8 mph55%29.71 "Hg10 mi
10:00 PM93 °FClear.6 mph49%29.71 "Hg10 mi
9:00 PM95 °FClear.8 mph44%29.68 "Hg10 mi
8:00 PM97 °FClear.8 mph44%29.68 "Hg10 mi
7:00 PM97 °FPassing clouds.8 mph42%29.65 "HgN/A
6:00 PM100 °FPassing clouds.3 mph35%29.65 "HgN/A
5:00 PM100 °FPassing clouds.3 mph31%29.65 "HgN/A
4:00 PM100 °FPassing clouds.6 mph31%29.68 "HgN/A
3:00 PM100 °FPassing clouds.6 mph33%29.68 "HgN/A
2:00 PM100 °FScattered clouds.3 mph35%29.71 "HgN/A
1:00 PM97 °FPassing clouds.3 mph42%29.74 "HgN/A
12:00 PM97 °FPassing clouds.6 mph39%29.74 "HgN/A
11:00 AM93 °FPassing clouds.6 mph47%29.77 "HgN/A
10:00 AM91 °FPassing clouds.6 mph49%29.77 "HgN/A
9:00 AM90 °FPassing clouds.3 mph55%29.74 "HgN/A
8:00 AM88 °FSunny.3 mph62%29.74 "Hg10 mi
7:00 AM84 °FSunny.3 mph66%29.74 "Hg10 mi
6:00 AM84 °FClear.3 mph62%29.71 "Hg10 mi
Weather by CustomWeather, © 2016

See weather overviewHow to use our weather pages